Independence, KS

3:15 AM CDT on October 23, 2017 (GMT -0500)
Independence Municipal

Weather History for KIDP - December, 2013

Change the Weather History Date:

Thursday, December 12, 2013

  Actual Average (KCFV) Record (KCFV)
Temperature  
Mean Temperature 28 °F -  
Max Temperature 44 °F 46 °F 71 °F (2015)
Min Temperature 12 °F 26 °F 3 °F (2000)
Degree Days  
Heating Degree Days 37    
Moisture  
Dew Point 19 °F    
Average Humidity 73    
Maximum Humidity 93    
Minimum Humidity 42    
Precipitation  
Precipitation 0.00 in - - ()
Sea Level Pressure  
Sea Level Pressure 30.44 in    
Wind  
Wind Speed 5 mph (South)    
Max Wind Speed 17 mph    
Max Gust Speed 22 mph    
Visibility 10 miles    
Events      
Averages and records for this station are not official NWS values.
T = Trace of Precipitation, MM = Missing Value Source: NWS Daily Summary

Daily Weather History Graph

Daily Weather History Graph

Search for Another Location

Airport or City:

Trip Planner

Search our weather history database for the weather conditions in past years. The results will help you decide how hot, cold, wet, or windy it might be!

Date:

Astronomy

Dec. 12, 2013 Rise Set
Actual Time 7:27 AM CST 5:06 PM CST
Civil Twilight 6:58 AM CST 5:35 PM CST
Nautical Twilight 6:26 AM CST 6:07 PM CST
Astronomical Twilight 5:54 AM CST 6:39 PM CST
Moon 2:09 PM CST (12/12) 2:56 AM CST (12/12)
Length of Visible Light 10h 36m
Length of Day
9h 38m
Waxing Gibbous, 80% of the Moon is Illuminated
Dec 12
Waxing Gibbous
Dec 17
Full
Dec 25
Last Quarter
Jan 1
New
Jan 7
First Quarter

Hourly Weather History & Observations

Time (CST) Temp. Windchill Dew Point Humidity Pressure Visibility Wind Dir Wind Speed Gust Speed Precip Events Conditions
12:15 AM 19.4 °F - 10.4 °F 68% 30.62 in 10.0 mi Calm Calm - N/A   Clear
12:35 AM 17.6 °F - 12.2 °F 79% 30.62 in 10.0 mi Calm Calm - N/A   Clear
12:55 AM 17.6 °F - 12.2 °F 79% 30.61 in 10.0 mi Calm Calm - N/A   Clear
1:15 AM 15.8 °F - 12.2 °F 86% 30.60 in 10.0 mi Calm Calm - N/A   Clear
1:35 AM 15.8 °F - 12.2 °F 86% 30.59 in 10.0 mi Calm Calm - N/A   Clear
1:55 AM 14.0 °F - 12.2 °F 93% 30.60 in 10.0 mi Calm Calm - N/A   Clear
2:15 AM 14.0 °F - 12.2 °F 93% 30.60 in 10.0 mi Calm Calm - N/A   Clear
2:35 AM 15.8 °F - 12.2 °F 86% 30.60 in 10.0 mi Calm Calm - N/A   Clear
2:55 AM 14.0 °F - 12.2 °F 93% 30.59 in 10.0 mi Calm Calm - N/A   Clear
3:15 AM 14.0 °F - 12.2 °F 93% 30.60 in 10.0 mi Calm Calm - N/A   Clear
3:35 AM 14.0 °F - 12.2 °F 93% 30.59 in 10.0 mi Calm Calm - N/A   Clear
3:55 AM 14.0 °F - 10.4 °F 86% 30.59 in 10.0 mi Calm Calm - N/A   Clear
4:15 AM 14.0 °F - 10.4 °F 86% 30.58 in 10.0 mi Calm Calm - N/A   Clear
4:35 AM 14.0 °F - 10.4 °F 86% 30.57 in 10.0 mi Calm Calm - N/A   Clear
4:55 AM 12.2 °F 6.1 °F 10.4 °F 92% 30.57 in 10.0 mi South 3.5 mph - N/A   Clear
5:15 AM 12.2 °F 6.1 °F 10.4 °F 92% 30.56 in 10.0 mi South 3.5 mph - N/A   Clear
5:35 AM 12.2 °F 4.3 °F 8.6 °F 85% 30.55 in 10.0 mi South 4.6 mph - N/A   Clear
5:55 AM 12.2 °F 4.3 °F 10.4 °F 92% 30.54 in 10.0 mi SSW 4.6 mph - N/A   Clear
6:15 AM 12.2 °F 2.9 °F 10.4 °F 92% 30.53 in 10.0 mi South 5.8 mph - N/A   Clear
6:35 AM 12.2 °F 6.1 °F 10.4 °F 92% 30.53 in 10.0 mi South 3.5 mph - N/A   Clear
6:55 AM 12.2 °F 6.1 °F 10.4 °F 92% 30.53 in 10.0 mi South 3.5 mph - N/A   Clear
7:15 AM 14.0 °F - 8.6 °F 79% 30.54 in 10.0 mi Calm Calm - N/A   Clear
7:35 AM 17.6 °F - 10.4 °F 73% 30.55 in 10.0 mi Calm Calm - N/A   Clear
7:55 AM 17.6 °F 12.3 °F 10.4 °F 73% 30.54 in 10.0 mi SSE 3.5 mph - N/A   Clear
8:15 AM 17.6 °F - 12.2 °F 79% 30.53 in 10.0 mi Calm Calm - N/A   Clear
8:35 AM 19.4 °F 11.5 °F 14.0 °F 80% 30.53 in 10.0 mi South 5.8 mph - N/A   Clear
8:55 AM 23.0 °F 13.1 °F 17.6 °F 80% 30.52 in 10.0 mi South 9.2 mph - N/A   Clear
9:15 AM 26.6 °F 17.5 °F 19.4 °F 74% 30.53 in 10.0 mi South 9.2 mph - N/A   Clear
9:35 AM 28.4 °F 18.5 °F 21.2 °F 74% 30.53 in 10.0 mi South 11.5 mph - N/A   Clear
9:55 AM 30.2 °F 20.2 °F 19.4 °F 64% 30.54 in 10.0 mi SSW 12.7 mph - N/A   Clear
10:15 AM 32.0 °F 22.5 °F 19.4 °F 60% 30.53 in 10.0 mi SSW 12.7 mph - N/A   Clear
10:35 AM 32.0 °F 21.6 °F 19.4 °F 60% 30.53 in 10.0 mi SSW 15.0 mph - N/A   Clear
10:55 AM 33.8 °F 24.8 °F 17.6 °F 52% 30.52 in 10.0 mi SSW 12.7 mph - N/A   Clear
11:15 AM 35.6 °F 26.6 °F 15.8 °F 44% 30.52 in 10.0 mi SW 13.8 mph - N/A   Clear
11:35 AM 35.6 °F 26.6 °F 17.6 °F 48% 30.51 in 10.0 mi SW 13.8 mph - N/A   Clear
11:55 AM 37.4 °F 27.8 °F 19.4 °F 48% 30.49 in 10.0 mi SSW 17.3 mph - N/A   Clear
12:15 PM 39.2 °F 30.5 °F 19.4 °F 45% 30.47 in 10.0 mi SW 16.1 mph 21.9 mph N/A   Clear
12:35 PM 41.0 °F 33.1 °F 21.2 °F 45% 30.45 in 10.0 mi SSW 15.0 mph - N/A   Clear
12:55 PM 42.8 °F 35.1 °F 21.2 °F 42% 30.43 in 10.0 mi SW 16.1 mph - N/A   Clear
1:15 PM 42.8 °F 35.8 °F 21.2 °F 42% 30.42 in 10.0 mi SW 13.8 mph - N/A   Clear
1:35 PM 42.8 °F 35.4 °F 23.0 °F 46% 30.42 in 10.0 mi SW 15.0 mph - N/A   Clear
1:55 PM 42.8 °F 35.8 °F 23.0 °F 46% 30.40 in 10.0 mi SSW 13.8 mph - N/A   Clear
2:15 PM 42.8 °F 36.2 °F 23.0 °F 46% 30.40 in 10.0 mi SSW 12.7 mph - N/A   Clear
2:55 PM 44.6 °F 37.8 °F 23.0 °F 43% 30.37 in 10.0 mi SSW 15.0 mph - N/A   Clear
3:15 PM 44.6 °F 37.8 °F 23.0 °F 43% 30.35 in 10.0 mi SSW 15.0 mph - N/A   Clear
3:35 PM 42.8 °F 36.6 °F 24.8 °F 49% 30.35 in 10.0 mi South 11.5 mph - N/A   Clear
3:55 PM 42.8 °F 36.2 °F 24.8 °F 49% 30.34 in 10.0 mi South 12.7 mph - N/A   Clear
4:15 PM 42.8 °F 37.0 °F 24.8 °F 49% 30.34 in 10.0 mi South 10.4 mph - N/A   Clear
4:35 PM 41.0 °F 34.3 °F 24.8 °F 53% 30.34 in 10.0 mi South 11.5 mph - N/A   Clear
4:55 PM 37.4 °F 30.3 °F 26.6 °F 65% 30.34 in 10.0 mi South 10.4 mph - N/A   Clear
5:15 PM 35.6 °F 28.6 °F 26.6 °F 70% 30.34 in 10.0 mi South 9.2 mph - N/A   Clear
5:35 PM 35.6 °F 27.5 °F 26.6 °F 70% 30.33 in 10.0 mi South 11.5 mph - N/A   Clear
5:55 PM 33.8 °F 24.8 °F 26.6 °F 75% 30.32 in 10.0 mi South 12.7 mph - N/A   Clear
6:15 PM 33.8 °F 25.3 °F 26.6 °F 75% 30.32 in 10.0 mi South 11.5 mph - N/A   Clear
6:35 PM 33.8 °F 25.3 °F 26.6 °F 75% 30.32 in 10.0 mi South 11.5 mph - N/A   Clear
6:55 PM 32.0 °F 24.2 °F 26.6 °F 80% 30.32 in 10.0 mi South 9.2 mph - N/A   Clear
7:15 PM 32.0 °F 24.2 °F 26.6 °F 80% 30.31 in 10.0 mi South 9.2 mph - N/A   Clear
7:35 PM 32.0 °F 24.8 °F 26.6 °F 80% 30.30 in 10.0 mi South 8.1 mph - N/A   Clear
7:55 PM 32.0 °F 24.2 °F 26.6 °F 80% 30.30 in 10.0 mi South 9.2 mph - N/A   Clear
8:15 PM 30.2 °F 21.9 °F 26.6 °F 86% 30.29 in 10.0 mi South 9.2 mph - N/A   Clear
8:35 PM 32.0 °F 24.8 °F 26.6 °F 80% 30.28 in 10.0 mi South 8.1 mph - N/A   Clear
8:55 PM 32.0 °F 24.2 °F 26.6 °F 80% 30.27 in 10.0 mi SSW 9.2 mph - N/A   Clear
9:15 PM 32.0 °F 22.1 °F 26.6 °F 80% 30.27 in 10.0 mi SSW 13.8 mph - N/A   Clear
9:35 PM 32.0 °F 23.6 °F 26.6 °F 80% 30.26 in 10.0 mi South 10.4 mph - N/A   Clear
9:55 PM 32.0 °F 23.0 °F 26.6 °F 80% 30.25 in 10.0 mi South 11.5 mph - N/A   Clear
10:15 PM 32.0 °F 22.5 °F 26.6 °F 80% 30.25 in 10.0 mi South 12.7 mph - N/A   Clear
10:35 PM 32.0 °F 23.0 °F 26.6 °F 80% 30.25 in 10.0 mi South 11.5 mph - N/A   Clear
10:55 PM 30.2 °F 21.9 °F 26.6 °F 86% 30.24 in 10.0 mi South 9.2 mph - N/A   Clear
11:15 PM 30.2 °F 21.3 °F 26.6 °F 86% 30.23 in 10.0 mi South 10.4 mph - N/A   Clear
11:35 PM 30.2 °F 21.9 °F 26.6 °F 86% 30.22 in 10.0 mi South 9.2 mph - N/A   Clear
11:55 PM 30.2 °F 21.3 °F 26.6 °F 86% 30.22 in 10.0 mi South 10.4 mph - N/A   Clear